DMSP 5D-2 F13 DEB, 40601

Orbit data source: Space-Track

DMSP 5D-2 F13 DEB, 40601 is space debris in SSO originally from a launch on Fri, 24 Mar 1995 UTC launched from the Air Force Western Test Range (AFWTR). Debris objects in space refer to the collection of defunct objects orbiting the Earth. Examples of debris include non-operational satellites, rocket bodies, and fragments generated from explosions, collisions, or faulty payload assembly.

Loading next visibility...
Identifier
40601, 1995-015EY
Orbit
SSO
Country
Flag of USUS
Related business
Manufacturer
Unknown
Mission
Spacecraft
Bus & Motor
Unknown
Mass
Unknown
Launch date (UTC)
1995-03-24 (31 years ago)
Launch vehicle
Unknown
Launch site
Air Force Western Test Range (AFWTR)
Object type
Payload
Rocket body
Debris
Shape & HBR
Unknown shape, 0.1 m
Radar Cross Section
Small (<0.1 m²)

Expand to show TLE details & history
Last TLE update: 2 days ago

TLE from 2 days ago
0 DMSP 5D-2 F13 DEB
1 40601U 95015EY  26171.41214082  .00004806  00000-0  13279-2 0  9992
2 40601  98.6462 221.1856 0009479 182.3058 177.8092 14.47176869580739
Epoch: 2026-06-20T09:53Z
TLE epoch observation values (Epoch: 2026-06-20T09:53:28.966Z)
Latitude
Longitude
164.18777°
Altitude
744.577 km
Speed
7.479 km/s
True Right ascension
14h 44m 44s
True Declination
0° 00' 00"
Sunlit
Object was in full shadow at epoch
Visualization orbit readout
Latitude
Unknown
Longitude
Unknown
Altitude
Unknown
Speed
Unknown
Apparent Right ascension
Unknown
Apparent Declination
Unknown
Sunlit
N/A
Visualization observer readout
Local Sidereal Time
21:39:31
Azimuth
Unknown
Elevation
Unknown
Doppler factor
Unknown
Orbital elements
Apogee altitude
738.743 km
Perigee altitude
725.264 km
Semi-major axis
7,110.14 km
Eccentricity
0.00095
Inclination
98.6462°
RAAN
221.1856°
Arg. of periapsis
182.3058°
True anomaly
177.81335°
Mean anomaly
177.8092°
Eccentric anomaly
177.81127°
Mean motion
3.62014 °/min
Orbital period
99.44 mins
BSTAR
0.0013279

Documentation

Showing up to 5 results
|